Pipestone, MN

4:03 PM CDT on September 30, 2016 (GMT -0500)
Pipestone Municipal

Weather History for KPQN - March, 2013

Change the Weather History Date:

Wednesday, March 6, 2013

  Actual Average Record
Temperature  
Mean Temperature 18 °F -  
Max Temperature 21 °F 27 °F 66 °F (2005)
Min Temperature 14 °F 13 °F 0 °F (1997)
Degree Days  
Heating Degree Days 48    
Moisture  
Dew Point 16 °F    
Average Humidity 89    
Maximum Humidity 93    
Minimum Humidity 79    
Precipitation  
Precipitation 0.02 in - - ()
Sea Level Pressure  
Sea Level Pressure 30.31 in    
Wind  
Wind Speed 7 mph (ESE)    
Max Wind Speed 13 mph    
Max Gust Speed 16 mph    
Visibility 8 miles    
Events Snow    
Averages and records for this station are not official NWS values.
T = Trace of Precipitation, MM = Missing Value Source: NWS Daily Summary

Daily Weather History Graph

Daily Weather History Graph

Search for Another Location

Airport or City:

Trip Planner

Search our weather history database for the weather conditions in past years. The results will help you decide how hot, cold, wet, or windy it might be!

Date:

Astronomy

Mar. 06, 2013 Rise Set
Actual Time 6:52 AM CST 6:20 PM CST
Civil Twilight 6:24 AM CST 6:49 PM CST
Nautical Twilight 5:50 AM CST 7:22 PM CST
Astronomical Twilight 5:17 AM CST 7:56 PM CST
Moon 3:11 AM CST (3/6) 12:55 PM CST (3/6)
Length of Visible Light 12h 25m
Length of Day
11h 27m
Waning Crescent, 29% of the Moon is Illuminated
Mar 6
Waning Crescent
Mar 11
New
Mar 19
First Quarter
Mar 27
Full
Apr 2
Last Quarter

Hourly Weather History & Observations

Time (CST) Temp. Windchill Dew Point Humidity Pressure Visibility Wind Dir Wind Speed Gust Speed Precip Events Conditions
12:13 AM 17.6 °F 7.3 °F 15.8 °F 93% 30.33 in 10.0 mi North 8.1 mph - N/A   Overcast
12:33 AM 17.6 °F 5.7 °F 15.8 °F 93% 30.33 in 10.0 mi NNE 10.4 mph - N/A   Overcast
12:53 AM 17.6 °F 7.3 °F 15.8 °F 93% 30.34 in 10.0 mi North 8.1 mph - N/A   Overcast
1:13 AM 17.6 °F 7.3 °F 15.8 °F 93% 30.35 in 10.0 mi North 8.1 mph - N/A   Overcast
1:33 AM 17.6 °F 7.3 °F 15.8 °F 93% 30.35 in 10.0 mi NNE 8.1 mph - N/A   Overcast
1:53 AM 17.6 °F 7.3 °F 15.8 °F 93% 30.36 in 10.0 mi NNW 8.1 mph - N/A   Overcast
2:13 AM 17.6 °F 9.3 °F 15.8 °F 93% 30.36 in 10.0 mi North 5.8 mph - N/A   Overcast
2:33 AM 17.6 °F 7.3 °F 15.8 °F 93% 30.36 in 10.0 mi NNE 8.1 mph - N/A   Overcast
2:53 AM 17.6 °F 12.3 °F 15.8 °F 93% 30.36 in 10.0 mi North 3.5 mph - N/A Snow Light Snow
3:13 AM 17.6 °F 12.3 °F 15.8 °F 93% 30.36 in 10.0 mi North 3.5 mph - N/A   Overcast
3:53 AM 17.6 °F 10.7 °F 14.0 °F 86% 30.35 in 10.0 mi North 4.6 mph - N/A Snow Light Snow
4:14 AM 17.6 °F 10.7 °F 14.0 °F 86% 30.35 in 10.0 mi North 4.6 mph - N/A Snow Light Snow
4:33 AM 15.8 °F 8.6 °F 14.0 °F 93% 30.35 in 10.0 mi NNE 4.6 mph - N/A   Overcast
4:53 AM 15.8 °F 7.2 °F 12.2 °F 86% 30.35 in 10.0 mi NNE 5.8 mph - N/A   Overcast
5:53 AM 15.8 °F 6.1 °F 12.2 °F 86% 30.36 in 10.0 mi North 6.9 mph - N/A Snow Light Snow
6:33 AM 15.8 °F 6.1 °F 12.2 °F 86% 30.36 in 10.0 mi North 6.9 mph - N/A   Overcast
6:53 AM 14.0 °F 6.5 °F 12.2 °F 93% 30.36 in 10.0 mi NE 4.6 mph - N/A   Overcast
7:13 AM 14.0 °F 3.9 °F 12.2 °F 93% 30.36 in 10.0 mi NE 6.9 mph - N/A   Overcast
7:33 AM 14.0 °F 3.9 °F 12.2 °F 93% 30.37 in 10.0 mi North 6.9 mph - N/A   Overcast
7:54 AM 14.0 °F 8.2 °F 12.2 °F 93% 30.37 in 7.0 mi NNE 3.5 mph - N/A Snow Light Snow
8:13 AM 14.0 °F 5.1 °F 12.2 °F 93% 30.37 in 5.0 mi NE 5.8 mph - N/A Snow Light Snow
8:34 AM 14.0 °F - 12.2 °F 93% 30.38 in 3.0 mi Calm Calm - N/A Snow Light Snow
8:53 AM 15.8 °F - 12.2 °F 86% 30.38 in 2.0 mi Calm Calm - N/A Snow Light Snow
9:13 AM 15.8 °F 10.2 °F 12.2 °F 86% 30.37 in 3.0 mi ENE 3.5 mph - N/A Snow Light Snow
9:34 AM 17.6 °F 12.3 °F 12.2 °F 79% 30.37 in 4.0 mi East 3.5 mph - N/A Snow Light Snow
9:53 AM 17.6 °F 12.3 °F 12.2 °F 79% 30.37 in 4.0 mi ENE 3.5 mph - N/A Snow Light Snow
10:13 AM 17.6 °F - 12.2 °F 79% 30.37 in 2.5 mi Calm Calm - N/A Snow Light Snow
10:33 AM 17.6 °F 12.3 °F 12.2 °F 79% 30.36 in 2.5 mi ESE 3.5 mph - N/A Snow Light Snow
10:53 AM 17.6 °F - 12.2 °F 79% 30.37 in 3.0 mi Calm Calm - N/A Snow Light Snow
11:13 AM 17.6 °F - 14.0 °F 86% 30.36 in 1.2 mi Calm Calm - N/A Snow Light Snow
11:33 AM 17.6 °F 12.3 °F 14.0 °F 86% 30.36 in 1.5 mi East 3.5 mph - 0.01 in Snow Light Snow
11:53 AM 17.6 °F - 14.0 °F 86% 30.36 in 1.8 mi Calm Calm - 0.01 in Snow Light Snow
12:13 PM 19.4 °F 14.3 °F 14.0 °F 80% 30.35 in 3.0 mi East 3.5 mph - 0.01 in Snow Light Snow
12:33 PM 19.4 °F 14.3 °F 14.0 °F 80% 30.34 in 1.8 mi East 3.5 mph - N/A Snow Light Snow
12:53 PM 19.4 °F 14.3 °F 15.8 °F 86% 30.34 in 5.0 mi ESE 3.5 mph - N/A Snow Light Snow
1:13 PM 19.4 °F 14.3 °F 15.8 °F 86% 30.33 in 7.0 mi SE 3.5 mph - N/A   Overcast
1:33 PM 19.4 °F 12.8 °F 15.8 °F 86% 30.32 in 10.0 mi SSE 4.6 mph - N/A   Overcast
1:53 PM 19.4 °F 12.8 °F 15.8 °F 86% 30.32 in 10.0 mi SE 4.6 mph - N/A   Overcast
2:13 PM 19.4 °F 11.5 °F 17.6 °F 93% 30.31 in 10.0 mi South 5.8 mph - N/A   Overcast
2:33 PM 21.2 °F 16.4 °F 17.6 °F 86% 30.31 in 10.0 mi South 3.5 mph - N/A   Overcast
2:53 PM 21.2 °F 14.9 °F 17.6 °F 86% 30.29 in 10.0 mi South 4.6 mph - N/A   Overcast
3:13 PM 21.2 °F 12.6 °F 17.6 °F 86% 30.30 in 10.0 mi South 6.9 mph - N/A   Overcast
3:33 PM 21.2 °F 11.7 °F 17.6 °F 86% 30.29 in 10.0 mi South 8.1 mph - N/A   Overcast
3:53 PM 21.2 °F 13.6 °F 17.6 °F 86% 30.28 in 10.0 mi SE 5.8 mph - N/A   Overcast
4:13 PM 21.2 °F 13.6 °F 19.4 °F 93% 30.28 in 10.0 mi SSE 5.8 mph - N/A   Overcast
4:33 PM 21.2 °F 12.6 °F 17.6 °F 86% 30.28 in 10.0 mi SSE 6.9 mph - N/A   Overcast
4:53 PM 21.2 °F 12.6 °F 19.4 °F 93% 30.27 in 10.0 mi SSE 6.9 mph - N/A   Overcast
5:14 PM 21.2 °F 10.9 °F 19.4 °F 93% 30.26 in 10.0 mi SE 9.2 mph - N/A   Overcast
5:33 PM 21.2 °F 10.9 °F 19.4 °F 93% 30.26 in 10.0 mi SSE 9.2 mph - N/A   Overcast
5:53 PM 21.2 °F 11.7 °F 19.4 °F 93% 30.25 in 10.0 mi SE 8.1 mph - N/A   Overcast
6:14 PM 21.2 °F 10.1 °F 19.4 °F 93% 30.24 in 10.0 mi SSE 10.4 mph - N/A   Overcast
6:33 PM 21.2 °F 9.5 °F 19.4 °F 93% 30.24 in 10.0 mi SSE 11.5 mph - N/A   Overcast
6:53 PM 21.2 °F 11.7 °F 19.4 °F 93% 30.24 in 10.0 mi SE 8.1 mph - N/A   Overcast
7:13 PM 21.2 °F 9.5 °F 17.6 °F 86% 30.24 in 10.0 mi SSE 11.5 mph 16.1 mph N/A   Overcast
7:33 PM 21.2 °F 10.1 °F 19.4 °F 93% 30.24 in 10.0 mi SE 10.4 mph - N/A   Overcast
7:53 PM 21.2 °F 10.1 °F 19.4 °F 93% 30.24 in 10.0 mi SE 10.4 mph - N/A   Overcast
8:13 PM 21.2 °F 10.1 °F 17.6 °F 86% 30.23 in 10.0 mi SE 10.4 mph - N/A   Overcast
8:33 PM 21.2 °F 8.9 °F 19.4 °F 93% 30.23 in 10.0 mi SE 12.7 mph - N/A   Overcast
8:53 PM 21.2 °F 10.1 °F 17.6 °F 86% 30.24 in 10.0 mi SSE 10.4 mph - N/A   Overcast
9:13 PM 21.2 °F 10.1 °F 19.4 °F 93% 30.24 in 10.0 mi SE 10.4 mph - N/A   Overcast
9:33 PM 21.2 °F 10.1 °F 19.4 °F 93% 30.24 in 10.0 mi SSE 10.4 mph - N/A   Overcast
9:53 PM 21.2 °F 10.1 °F 19.4 °F 93% 30.24 in 10.0 mi SE 10.4 mph - N/A   Overcast
10:13 PM 21.2 °F 11.7 °F 19.4 °F 93% 30.25 in 10.0 mi SE 8.1 mph - N/A   Overcast
10:33 PM 21.2 °F 10.9 °F 19.4 °F 93% 30.25 in 10.0 mi SE 9.2 mph - N/A   Overcast
10:53 PM 19.4 °F 8.6 °F 17.6 °F 93% 30.25 in 10.0 mi SE 9.2 mph - N/A   Overcast
11:13 PM 19.4 °F 9.5 °F 17.6 °F 93% 30.24 in 10.0 mi SE 8.1 mph - N/A   Overcast
11:33 PM 19.4 °F 10.4 °F 17.6 °F 93% 30.26 in 10.0 mi SSE 6.9 mph - N/A   Overcast
11:53 PM 19.4 °F 7.9 °F 17.6 °F 93% 30.24 in 10.0 mi SE 10.4 mph - N/A   Overcast